User: anonymous   Login
Location: Unspecified
(0.0000°N, 0.0000°E)
Time: 10:12:19
(UTC+00:00)
Language:

DSP F18 - Orbit

View from above orbital plane
View from above orbital plane
View from above satellite
View from above satellite

Ground track
Ground track

The orbit data is extracted from the following two-line orbital elements,

1 24737U 97008A   23270.34108927 -.00000057  00000-0  00000-0 0  9998
2 24737  14.0673  10.8049 0006334 290.8283  97.1273  0.99026900  8974
Epoch (UTC): 27 September 2023 08:11:10
Eccentricity: 0.0006334
inclination: 14.0673°
perigee height: 36112 km
apogee height: 36166 km
right ascension of ascending node: 10.8049°
argument of perigee: 290.8283°
revolutions per day: 0.99026900
mean anomaly at epoch: 97.1273°
orbit number at epoch: 897

The dashed part of the orbit path shows where the satellite is in the earth's shadow,  

DLR